Date String (YYYY-MM-DD hh:mm:ss) UTC,Instrument flags,Ambient pressure (hPa),Sample flow (lpm),Bypass flow (lpm),Sample temperature (°C),Ambient temperature (°C),ASC tube jacket temperature (°C),LED temperature (°C),Box temperature (°C),Sample RH (%),Span deviation,Mass concentration (μg/m³),Mass concentration (μg/m³),Mass concentration (μg/m³)
DateTimeUTC,F1_M11,P_M11,Q1_M11,Q2_M11,T1_M11,T2_M11,T3_M11,T4_M11,T5_M11,U1_M11,ZSPAN_M11,X0_M11,X2_M11,X1_M11
2021-12-06 20:00:00,,0824.0,5.02,0.00,23.0,22.2,00.0,32.0,24.8,06.5,0000.0,0016.86,0003.99,0002.58
2021-12-06 20:01:00,,0824.0,4.99,0.00,23.0,22.2,00.0,32.0,24.8,06.5,0000.0,0017.15,0004.02,0002.57
2021-12-06 20:02:00,,0824.1,4.99,0.00,23.0,22.2,00.0,32.0,24.8,06.5,0000.0,0017.66,0004.06,0002.58
2021-12-06 20:03:00,,0824.1,5.00,0.00,23.0,22.2,00.0,32.0,24.8,06.5,0000.0,0018.28,0004.10,0002.58
2021-12-06 20:04:00,,0824.0,5.01,0.00,23.0,22.2,00.0,32.0,24.8,06.6,0000.0,0018.11,0004.20,0002.59
2021-12-06 20:05:00,,0823.9,5.00,0.00,23.0,22.2,00.0,32.0,24.8,06.5,0000.0,0017.57,0004.13,0002.59
2021-12-06 20:06:00,,0823.9,4.98,0.00,23.0,22.2,00.0,32.0,24.8,06.5,0000.0,0018.12,0004.06,0002.58
2021-12-06 20:07:00,,0823.7,5.01,0.00,23.0,22.2,00.0,32.0,24.8,06.6,0000.0,0018.64,0004.05,0002.58
2021-12-06 20:08:00,,0823.6,5.01,0.00,23.0,22.2,00.0,32.0,24.8,06.5,0000.0,0018.37,0004.08,0002.59
2021-12-06 20:09:00,,0823.5,5.00,0.00,23.0,22.2,00.0,32.0,24.8,06.5,0000.0,0018.51,0004.13,0002.59
2021-12-06 20:10:00,,0823.4,5.00,0.00,23.0,22.2,00.0,32.0,24.8,06.5,0000.0,0017.93,0004.15,0002.58
2021-12-06 20:11:00,,0823.4,5.00,0.00,23.0,22.2,00.0,32.0,24.8,06.5,0000.0,0018.59,0004.16,0002.56
2021-12-06 20:12:00,,0823.7,5.00,0.00,23.0,22.3,00.0,32.0,24.8,06.5,0000.0,0018.34,0004.19,0002.57
2021-12-06 20:13:00,,0823.9,4.99,0.00,23.0,22.3,00.0,32.0,24.8,06.6,0000.0,0017.67,0004.18,0002.56
2021-12-06 20:14:00,,0823.7,5.01,0.00,23.0,22.3,00.0,32.0,24.8,06.6,0000.0,0017.52,0004.17,0002.55
2021-12-06 20:15:00,,0823.5,4.99,0.00,23.0,22.3,00.0,32.0,24.8,06.6,0000.0,0016.55,0004.10,0002.57
2021-12-06 20:16:00,,0823.7,5.01,0.00,23.0,22.2,00.0,32.0,24.7,06.6,0000.0,0016.55,0004.10,0002.59
2021-12-06 20:17:00,,0823.7,4.99,0.00,22.9,22.2,00.0,32.0,24.6,06.6,0000.0,0016.53,0004.18,0002.60
2021-12-06 20:18:00,,0823.5,5.00,0.00,22.9,22.1,00.0,31.9,24.6,06.6,0000.0,0016.31,0004.19,0002.61
2021-12-06 20:19:00,,0823.4,5.00,0.00,22.9,22.1,00.0,31.9,24.6,06.6,0000.0,0016.03,0004.16,0002.60
2021-12-06 20:20:00,,0823.2,5.01,0.00,22.9,22.0,00.0,31.9,24.6,06.7,0000.0,0015.96,0004.12,0002.60
2021-12-06 20:21:00,,0823.2,4.99,0.00,22.9,22.0,00.0,31.9,24.6,06.7,0000.0,0016.33,0004.07,0002.59
2021-12-06 20:22:00,,0823.1,5.01,0.00,22.8,22.0,00.0,31.9,24.5,06.7,0000.0,0016.73,0004.06,0002.61
2021-12-06 20:23:00,,0823.2,4.99,0.00,22.8,22.0,00.0,31.9,24.6,06.7,0000.0,0017.01,0003.99,0002.62
2021-12-06 20:24:00,,0823.2,5.00,0.00,22.8,22.0,00.0,31.9,24.6,06.7,0000.0,0017.86,0003.98,0002.62
2021-12-06 20:25:00,,0823.3,5.00,0.00,22.8,22.0,00.0,31.9,24.6,06.7,0000.0,0017.66,0003.96,0002.63
2021-12-06 20:26:00,,0823.2,5.00,0.00,22.8,22.0,00.0,31.9,24.6,06.7,0000.0,0018.94,0003.97,0002.61
2021-12-06 20:27:00,,0823.1,5.00,0.00,22.8,22.0,00.0,31.8,24.6,06.7,0000.0,0018.73,0003.98,0002.60
2021-12-06 20:28:00,,0823.1,4.99,0.00,22.8,22.0,00.0,31.8,24.6,06.7,0000.0,0019.93,0003.95,0002.60
2021-12-06 20:29:00,,0823.0,5.01,0.00,22.9,22.1,00.0,31.8,24.6,06.7,0000.0,0019.22,0004.01,0002.62
2021-12-06 20:30:00,,0823.0,4.99,0.00,22.9,22.1,00.0,31.8,24.6,06.7,0000.0,0019.40,0004.03,0002.65
2021-12-06 20:31:00,,0823.1,5.01,0.00,22.9,22.1,00.0,31.8,24.7,06.6,0000.0,0018.77,0004.04,0002.66
2021-12-06 20:32:00,,0823.2,4.99,0.00,22.9,22.1,00.0,31.8,24.7,06.7,0000.0,0018.09,0004.07,0002.68
2021-12-06 20:33:00,,0823.2,5.00,0.00,22.9,22.1,00.0,31.8,24.7,06.7,0000.0,0017.97,0004.10,0002.70
2021-12-06 20:34:00,,0823.0,4.99,0.00,22.9,22.1,00.0,31.8,24.7,06.7,0000.0,0017.39,0004.14,0002.72
2021-12-06 20:35:00,,0822.9,5.01,0.00,22.9,22.1,00.0,31.8,24.7,06.7,0000.0,0017.16,0004.11,0002.72
2021-12-06 20:36:00,,0822.8,4.99,0.00,22.9,22.1,00.0,31.8,24.7,06.7,0000.0,0016.80,0004.13,0002.74
2021-12-06 20:37:00,,0822.8,5.00,0.00,22.9,22.1,00.0,31.8,24.7,06.6,0000.0,0015.07,0004.11,0002.75
2021-12-06 20:38:00,,0822.8,5.00,0.00,22.9,22.2,00.0,31.8,24.7,06.7,0000.0,0015.42,0004.15,0002.74
2021-12-06 20:39:00,,0823.0,5.00,0.00,22.9,22.2,00.0,31.8,24.8,06.7,0000.0,0014.42,0004.20,0002.74
2021-12-06 20:40:00,,0823.0,4.99,0.00,22.9,22.2,00.0,31.8,24.8,06.7,0000.0,0014.21,0004.19,0002.74
2021-12-06 20:41:00,,0823.1,5.00,0.00,23.0,22.3,00.0,31.8,24.8,06.6,0000.0,0014.74,0004.18,0002.73
2021-12-06 20:42:00,,0823.1,4.99,0.00,23.0,22.3,00.0,31.9,24.8,06.6,0000.0,0014.93,0004.20,0002.72
2021-12-06 20:43:00,,0823.0,5.00,0.00,23.0,22.3,00.0,31.9,24.8,06.6,0000.0,0014.99,0004.20,0002.72
2021-12-06 20:44:00,,0822.8,5.00,0.00,23.0,22.3,00.0,31.9,24.8,06.6,0000.0,0014.06,0004.21,0002.72
2021-12-06 20:45:00,,0822.8,5.01,0.00,23.0,22.2,00.0,31.9,24.8,06.6,0000.0,0013.86,0004.21,0002.70
2021-12-06 20:46:00,,0822.8,4.99,0.00,23.0,22.2,00.0,31.9,24.8,06.6,0000.0,0013.35,0004.27,0002.71
2021-12-06 20:47:00,,0822.8,5.02,0.00,23.0,22.3,00.0,31.9,24.8,06.6,0000.0,0013.55,0004.29,0002.71
2021-12-06 20:48:00,,0822.9,4.99,0.00,23.0,22.2,00.0,31.9,24.8,06.6,0000.0,0015.85,0004.34,0002.72
2021-12-06 20:49:00,,0823.0,5.01,0.00,23.0,22.3,00.0,31.9,24.8,06.6,0000.0,0016.31,0004.30,0002.73
2021-12-06 20:50:00,,0822.9,5.00,0.00,23.0,22.3,00.0,31.9,24.8,06.6,0000.0,0015.93,0004.24,0002.73
2021-12-06 20:51:00,,0822.9,5.01,0.00,23.0,22.3,00.0,31.9,24.8,06.6,0000.0,0015.49,0004.21,0002.73
2021-12-06 20:52:00,,0822.7,5.00,0.00,23.0,22.3,00.0,31.9,24.9,06.6,0000.0,0015.05,0004.18,0002.75
2021-12-06 20:53:00,,0822.6,4.99,0.00,23.0,22.3,00.0,31.9,24.9,06.6,0000.0,0015.01,0004.16,0002.76
2021-12-06 20:54:00,,0822.6,5.00,0.00,23.1,22.3,00.0,31.9,24.9,06.6,0000.0,0014.93,0004.22,0002.77
2021-12-06 20:55:00,,0822.6,4.99,0.00,23.1,22.4,00.0,31.9,24.9,06.6,0000.0,0015.82,0004.22,0002.78
2021-12-06 20:56:00,,0822.7,4.99,0.00,23.0,22.3,00.0,31.9,24.8,06.6,0000.0,0015.74,0004.19,0002.78
2021-12-06 20:57:00,,0822.7,5.01,0.00,23.0,22.3,00.0,31.9,24.8,06.6,0000.0,0016.35,0004.18,0002.78
2021-12-06 20:58:00,,0822.8,5.00,0.00,23.0,22.3,00.0,31.9,24.8,06.6,0000.0,0015.78,0004.19,0002.77
2021-12-06 20:59:00,,0822.7,4.99,0.00,23.1,22.3,00.0,32.0,24.9,06.6,0000.0,0014.44,0004.21,0002.78
